User: anonymous   Login
Location: Unspecified
(0.0000°N, 0.0000°E)
Time: 19:55:51
(UTC+00:00)
Language:

GOES 1 - Orbit

View from above orbital plane
View from above orbital plane
View from above satellite
View from above satellite

Ground track
Ground track

The orbit data is extracted from the following two-line orbital elements,

1 08366U 75100A   17269.10257861 -.00000222  00000-0  00000+0 0  9997
2 08366  11.8859 317.3007 0006279 276.7197  82.6953  1.00246268153260
Epoch (UTC): 26 September 2017 02:27:42
Eccentricity: 0.0006279
inclination: 11.8859°
perigee height: 35767 km
apogee height: 35820 km
right ascension of ascending node: 317.3007°
argument of perigee: 276.7197°
revolutions per day: 1.00246268
mean anomaly at epoch: 82.6953°
orbit number at epoch: 15326

The dashed part of the orbit path shows where the satellite is in the earth's shadow,  

DLR